Showing default

ELEKTRO-L 2, 41105

Orbit data source: Space-Track

ELEKTRO-L 2, 41105 is a Commonwealth of Independent States-origin payload satellite in GEO that was launched on Fri, 11 Dec 2015 UTC via a ZENIT-3SLBF launch vehicle from the Tyuratam Missile And Space Complex (TTMTR). Payloads include a variety of satellites, spacecraft, and rockets equipped with specific instruments for various scientific and technological missions. These include communications satellites like Starlink; space stations such as the ISS; scientific satellites like the Hubble; Earth observation satellites from companies like Planet Labs, Umbra, and HawkEye 360; GPS; miniature CubeSats for education and research; and military/defense satellites.

Not visible in the next 10 days
ELEKTRO-L 2 details
Identifier
41105, 2015-074A
Orbit
GEO
Last TLE update10 hours ago
Origin
Flag of CISRGMS/NPOLO (CIS)
ManufacturerLavochkin
MissionOperational Civil Weather
Bus & MotorNAVIGATOR, Unknown motor
Mass1,855 kg wet, 1,591 kg dry
Launch date (UTC)
2015-12-11 (9 years ago)
Launch vehicle
ZENIT-3SLBF
Launch site
Tyuratam Missile And Space Complex (TTMTR)
Object type
Payload
Rocket body
Debris
Shape & HBRBox + 1 Pan + 1 Ant, 10 m
Radar Cross Section11.105 m², Large (>1 m²)

Expand to show TLE details & history

TLE from 10 hours ago
0 ELEKTRO-L 2
1 41105U 15074A   24361.09783234 -.00000093  00000-0  00000-0 0  9993
2 41105   5.3311  77.1458 0003859 199.1820 199.4915  1.00271321 33116
Epoch: 2024-12-26T02:20Z
Definitive object data (Epoch: 2024-12-26T02:20:52.714Z)
Latitude3.35075°
Longitude-14.62188°
Altitude35,801.26 km
Speed3.074 km/s
True Right ascension07h 42m 43s
True Declination3° 20' 51"
Sunlit
Object was in daylight at TLE epoch
Visualization TLE readout
Latitude-1.33427°
Longitude141.03191°
Altitude35,770.13 km
Speed3.076 km/s
Apparent Right ascension18h 31m 49s
Apparent Declination-6° 46' 58"
Sunlit
Object is in daylight
Visualization observer readout
Local Sidereal Time12:03:03
Azimuth90.627° ESE
Elevation-9.856°
Doppler factor1
Orbital elements
Apogee altitude35,804.054 km
Perigee altitude35,771.51 km
Semi-major axis42,165.919 km
Eccentricity0.0003859
Inclination5.3311°
RAAN77.1458°
Arg. of periapsis199.182°
True anomaly199.47675°
Mean anomaly199.4915°
Eccentric anomaly199.48413°
Mean motion0.25067 °/min
BSTARUnknown
Orbital period1436.16 mins
Loading historical data...
41105 neighbors
Authenticating...
Loading maneuver chart data...
Loading historical data...
Loading historical data...
Loading historical data...
Loading historical data...
Loading historical data...
Loading historical data...
Loading historical data...

ELEKTRO-L 2 Visibility forecast

Observer location: undefined°, undefined

ELEKTRO-L 2 is not visible in the next 10 days
Span
Click to sort rows by Start time (UTC) header in descending order
Start Az.
Max El. time (UTC)
Max El. Az.
Max El.
End time (UTC)
End Az.
|